Погода в Рожае

Черногория     42°50′34″N   20°10′02″E
темп.,
°C
ветер,
м/с
пор.,
м/с
влажн.,
%
обл.,
%
осадки,
мм/ч
давл.,
гПа
погр.,
м
15 мая, сб
сб1523:00+5зюз2272100 0.0 101422
02:00+5юз1171100 0.0 101312
05:00+5всв0176100 0.0 101117
08:00+7юв2381100 0.0 1011317
11:00+9юв2276100 0.1 1010727
14:00+11ююв227586 0.7 1009904
17:00+10ю118387 1.3 1009513
20:00+6з22935 1.4 101020
16 мая, вс
вс1623:00+4з229214 0.0 101227
02:00+5з2291100 0.0 101240
05:00+4з229080 0.0 101137
08:00+8з1280100 0.0 1011314
11:00+14ююв145520 0.0 10101414
14:00+14сз246547 1.6 10101147
17:00+14зсз135722 0.8 10101335
20:00+8зсз11873 0.9 101115
17 мая, пн
пн1723:00+6з2290100 0.0 101233
02:00+8зюз2276100 0.0 101128
05:00+7зюз227993 0.0 101031
08:00+12юз236753 0.0 1010332
11:00+17ю255712 0.0 10091301
14:00+18ююз3654100 0.1 10081726
17:00+17зюз265514 0.0 10081460
20:00+12з2278100 0.1 101062
18 мая, вт
вт1823:00+9з2284100 0.0 101129
02:00+9зсз118893 0.3 101125
05:00+7сз119451 0.3 101213
08:00+9сз019669 1.2 101393
11:00+11юв028688 1.3 1013502
14:00+14ююв247029 3.1 1011941
17:00+13ю246813 1.8 1011882
20:00+8зюз11870 2.3 101114
19 мая, ср
ср1923:00+6з229255 0.4 101331
02:00+6сз118886 0.8 101214
05:00+6ссз2497100 2.5 1013311
08:00+6с119275 3.3 1015283
11:00+7с229293 1.5 1016505
14:00+6с2294100 2.3 1017706
17:00+4ссз2396100 2.2 1019509
20:00+3сз2397100 6.5 1020271